Location: Santa Cristina
(46.5667°N, 11.7167°E)
Time: 17:06:36
(UTC+00:00)

SJ 16-02 - Pass Details

Date: 21 April 2021
Orbit: 605 x 617 km, 75.0° (Epoch: 12 May)

Event Time Altitude Azimuth Distance (km) Brightness Sun altitude
Exits shadow 00:25:15 36° 58° (ENE) 988 2.7 -29.3°
Drops below altitude 10° 00:28:12 10° 31° (NNE) 1,987 4.9 -29.1°
Sets 00:30:31 0° 26° (NNE) 2,899 6.0 -29.0°
